This demonstration page uses our WeatherBlox Daily Observations layout. Learn more.

Hourly Observations for June 29, 2015

Temp ( °F °C ) Dew Point ( °F °C ) Humidity (%) Winds ( mph kmh ) Pressure ( in mb ) Visibility ( mi km ) Precip ( " mm )
12:15 am 00:15 Clear 63 17 55 12.5 75 75 Calm 29.97 1015 10 16.0934 0 0
12:35 am 00:35 Clear 62 16.8 54 12.3 75 75 Calm 29.97 1015 10 16.0934 0 0
12:55 am 00:55 Clear 60 15.7 55 12.6 82 82 Calm 30 1016 10 16.0934 0 0
1:15 am 01:15 Clear 61 16 55 12.5 80 80 Calm 30 1016 10 16.0934 0 0
1:35 am 01:35 Clear 59 15 54 12.1 83 83 Calm 30 1016 10 16.0934 0 0
1:55 am 01:55 Clear 58 14.7 53 11.9 83 83 Calm 30 1016 10 16.0934 0 0
2:15 am 02:15 Clear 59 14.8 54 12.4 86 86 Calm 30 1016 10 16.0934 0 0
2:35 am 02:35 Clear 59 14.9 54 12.2 84 84 Calm 30 1016 10 16.0934 0 0
2:55 am 02:55 Clear 58 14.5 54 12 85 85 Calm 30 1016 10 16.0934 0 0
3:15 am 03:15 Clear 57 13.8 53 11.8 88 88 Calm 30 1016 10 16.0934 0 0
3:35 am 03:35 Clear 58 14.3 53 11.9 86 86 Calm 30 1016 10 16.0934 0 0
3:55 am 03:55 Clear 57 13.9 53 11.6 86 86 W 5 7 30 1016 10 16.0934 0 0
4:15 am 04:15 Clear 57 14 53 11.7 86 86 W 3 6 30 1016 10 16.0934 0 0
4:35 am 04:35 Clear 58 14.4 53 11.5 83 83 Calm 30 1016 10 16.0934 0 0
4:55 am 04:55 Clear 58 14.4 52 11.3 82 82 Calm 30 1016 10 16.0934 0 0
5:15 am 05:15 Clear 57 13.9 52 11.2 84 84 W 3 6 30 1016 10 16.0934 0 0
5:35 am 05:35 Clear 57 14 52 11.2 83 83 W 5 7 30.03 1017 10 16.0934 0 0
5:55 am 05:55 Clear 57 14.1 52 11.3 83 83 Calm 30 1016 10 16.0934 0 0
6:15 am 06:15 Sunny 58 14.3 52 11.2 82 82 NW 3 6 30 1016 10 16.0934 0 0
6:35 am 06:35 Sunny 56 13.3 51 10.8 85 85 Calm 30.06 1018 10 16.0934 0 0
6:55 am 06:55 Sunny 57 13.9 53 11.6 86 86 Calm 30.03 1017 10 16.0934 0 0
7:15 am 07:15 Sunny 60 15.6 53 11.9 79 79 Calm 30.03 1017 10 16.0934 0 0
7:35 am 07:35 Sunny 61 16.1 55 13 82 82 Calm 30.03 1017 10 16.0934 0 0
7:55 am 07:55 Sunny 64 17.5 58 14.5 83 83 WNW 3 6 30 1016 10 16.0934 0 0
8:15 am 08:15 Sunny 66 18.9 59 14.9 78 78 WNW 3 6 30 1016 10 16.0934 0 0
8:35 am 08:35 Sunny 68 20.1 59 15.1 73 73 WNW 3 6 30 1016 10 16.0934 0 0
8:55 am 08:55 Sunny 70 21.1 58 14.6 67 67 WNW 5 7 29.97 1015 10 16.0934 0 0
9:15 am 09:15 Sunny 73 22.5 56 13.2 56 56 W 5 7 29.97 1015 10 16.0934 0 0
9:35 am 09:35 Sunny 74 23.3 55 13 52 52 W 6 9 29.97 1015 10 16.0934 0 0
9:55 am 09:55 Sunny 75 24.1 55 12.8 49 49 WNW 5 7 29.94 1014 10 16.0934 0 0
10:15 am 10:15 Sunny 76 24.7 53 11.4 43 43 NNW 3 6 29.94 1014 10 16.0934 0 0
10:35 am 10:35 Sunny 78 25.3 55 12.7 46 46 NW 6 9 29.94 1014 10 16.0934 0 0
10:55 am 10:55 Sunny 79 26.1 54 12.3 42 42 NW 7 11 29.94 1014 10 16.0934 0 0
11:15 am 11:15 Sunny 80 26.6 53 11.5 39 39 NNW 6 9 29.94 1014 10 16.0934 0 0
11:35 am 11:35 Sunny 81 27.1 55 12.7 41 41 WNW 6 9 29.94 1014 10 16.0934 0 0
11:55 am 11:55 Sunny 81 27.4 56 13.1 41 41 WNW 6 9 29.94 1014 10 16.0934 0 0
12:15 pm 12:15 Sunny 82 27.9 56 13.3 41 41 NW 8 13 29.91 1013 10 16.0934 0 0
12:35 pm 12:35 Sunny 83 28.3 56 13.3 40 40 NW 9 15 29.91 1013 10 16.0934 0 0
12:55 pm 12:55 Sunny 84 28.7 55 13 38 38 NW 8 13 29.91 1013 10 16.0934 0 0
1:15 pm 13:15 Sunny 84 28.9 55 12.8 37 37 WNW 10 17 29.88 1012 10 16.0934 0 0
1:35 pm 13:35 Sunny 85 29.2 56 13.1 37 37 WNW 7 11 29.88 1012 10 16.0934 0 0
1:55 pm 13:55 Sunny 86 30 54 12.4 34 34 NNW 7 11 29.88 1012 10 16.0934 0 0
2:15 pm 14:15 Sunny 86 30.1 55 12.6 34 34 NNW 8 13 29.88 1012 10 16.0934 0 0
2:35 pm 14:35 Sunny 86 30.1 56 13.2 35 35 NW 6 9 29.88 1012 10 16.0934 0 0
2:55 pm 14:55 Sunny 87 30.4 56 13.1 35 35 NNW 5 7 29.88 1012 10 16.0934 0 0
3:15 pm 15:15 Sunny 87 30.7 57 13.9 36 36 WNW 8 13 29.85 1011 10 16.0934 0 0
3:35 pm 15:35 Sunny 88 31.1 56 13.2 33 33 NNW 7 11 29.85 1011 10 16.0934 0 0
3:55 pm 15:55 Sunny 88 31 55 12.6 32 32 NNW 7 11 29.83 1010 10 16.0934 0 0
4:15 pm 16:15 Sunny 89 31.5 54 12 30 30 N 9 15 29.83 1010 10 16.0934 0 0
4:35 pm 16:35 Sunny 90 32 54 12 29 29 N 6 9 29.83 1010 10 16.0934 0 0
4:55 pm 16:55 Sunny 89 31.6 54 12.3 31 31 N 7 11 29.83 1010 10 16.0934 0 0
5:15 pm 17:15 Sunny 89 31.6 53 11.8 30 30 N 7 11 29.83 1010 10 16.0934 0 0
5:35 pm 17:35 Sunny 89 31.5 54 12.1 30 30 N 5 7 29.83 1010 10 16.0934 0 0
5:55 pm 17:55 Sunny 89 31.5 54 12.2 31 31 N 5 7 29.83 1010 10 16.0934 0 0
6:15 pm 18:15 Sunny 88 31.1 54 12.3 32 32 ENE 5 7 29.83 1010 10 16.0934 0 0
6:35 pm 18:35 Sunny 88 31.2 55 12.5 32 32 N 6 9 29.83 1010 10 16.0934 0 0
6:55 pm 18:55 Sunny 87 30.4 59 15 39 39 ENE 7 11 29.85 1011 10 16.0934 0 0
7:15 pm 19:15 Sunny 86 29.8 60 15.3 41 41 ENE 6 9 29.85 1011 10 16.0934 0 0
7:35 pm 19:35 Sunny 85 29.2 61 16.3 46 46 ENE 5 7 29.85 1011 10 16.0934 0 0
7:55 pm 19:55 Sunny 83 28.4 63 17 50 50 E 5 7 29.85 1011 10 16.0934 0 0
8:15 pm 20:15 Sunny 82 27.6 63 17.4 54 54 E 6 9 29.85 1011 10 16.0934 0 0
8:35 pm 20:35 Sunny 80 26.9 62 16.4 53 53 E 5 7 29.85 1011 10 16.0934 0 0
8:55 pm 20:55 Sunny 78 25.8 61 16.1 55 55 E 6 9 29.88 1012 10 16.0934 0 0
9:15 pm 21:15 Hazy 78 25.4 64 17.7 62 62 SE 3 6 29.88 1012 5 8.0467 0 0
9:35 pm 21:35 Clear 77 25.1 64 18 65 65 SE 3 6 29.88 1012 7 11.26538 0 0
9:55 pm 21:55 Clear 73 22.6 64 18 75 75 SE 5 7 29.91 1013 10 16.0934 0 0
10:15 pm 22:15 Clear 73 22.5 64 17.5 73 73 SE 5 7 29.91 1013 10 16.0934 0 0
10:35 pm 22:35 Clear 74 23.2 63 17.3 70 70 Calm 29.91 1013 10 16.0934 0 0
10:55 pm 22:55 Clear 72 22.3 63 17 72 72 SSE 3 6 29.91 1013 10 16.0934 0 0
11:15 pm 23:15 Clear 72 22.2 62 16.5 70 70 S 3 6 29.94 1014 10 16.0934 0 0
11:35 pm 23:35 Clear 73 22.5 61 16.2 68 68 S 3 6 29.94 1014 10 16.0934 0 0
11:55 pm 23:55 Clear 73 22.6 61 16.2 67 67 S 5 7 29.91 1013 10 16.0934 0 0

Powered by AerisWeather